1400544033243,143.531
1400544093243,143.764
1400544153243,143.460
1400544213243,143.694
1400544273243,143.840
1400544333243,143.681
1400544393243,143.708
1400544453243,143.538
1400544513243,143.394
1400544573243,143.156
1400544633243,143.261
1400544693243,143.591
1400544753243,143.194
1400544813243,143.462
1400544873243,143.461
1400544933243,143.400
1400544993243,143.343
1400545053243,143.506
1400545113243,143.627
1400545173243,143.321
1400545233243,143.598
1400545293243,143.518
1400545353243,143.575
1400545413243,143.624
1400545473243,143.504
1400545533243,143.298
1400545593243,143.592
1400545653243,143.363
1400545713243,143.528
1400545773243,143.215
1400545833243,143.683
1400545893243,143.328
1400545953243,143.624
1400546013243,143.333
1400546073243,143.420
1400546133243,143.397
1400546193243,143.533
1400546253243,143.495
1400546313243,143.429
1400546373243,143.337
1400546433243,143.184
1400546493243,143.387
1400546553243,143.444
1400546613243,143.382
1400546673243,143.308
1400546733243,143.364
1400546793243,143.443
1400546853243,143.530
1400546913243,143.235
1400546973243,143.436
1400547033243,143.334
1400547093243,143.322
1400547153243,143.428
1400547213243,143.327
1400547273243,143.447
1400547333243,143.579
1400547393243,143.801
1400547453243,143.582
1400547513243,143.354
1400547573243,143.612
1400547633253,143.586
1400547693253,143.687
1400547753253,143.695
1400547813253,143.425
1400547873253,143.765
1400547933253,143.576
1400547993253,143.606
1400548053253,143.693
1400548113253,143.469
1400548173253,143.672
1400548233253,143.506
1400548293253,143.647
1400548353253,143.459
1400548413253,143.632
1400548473253,143.721
1400548533253,143.507
1400548593253,143.712
1400548653253,143.535
1400548713253,143.380
1400548773253,143.441
1400548833253,143.473
1400548893253,143.448
1400548953253,143.273
1400549013253,143.112
1400549073253,143.094
1400549133253,143.125
1400549193253,143.424
1400549253253,143.102
1400549313253,143.368
1400549373253,143.322
1400549433253,143.363
1400549493253,143.246
1400549553253,143.384
1400549613253,143.046
1400549673253,143.058
1400549733253,143.302
1400549793253,143.484
1400549853253,143.049
1400549913253,143.340
1400549973253,142.961
1400550033253,143.196
1400550093253,143.263
1400550153253,142.872
1400550213253,143.400
1400550273253,143.174
1400550333253,143.113
1400550393253,143.249
1400550453253,143.386
1400550513253,142.972
1400550573253,143.129
1400550633253,143.101
1400550693253,143.302
1400550753253,143.292
1400550813253,143.190
1400550873253,143.018
1400550933253,142.953
1400550993253,143.384
1400551053253,143.221
1400551113253,143.176
1400551173253,143.303
1400551233263,143.178
1400551293263,142.962
1400551353263,142.788
1400551413263,143.120
1400551473263,143.252
1400551533263,143.177
1400551593263,143.448
1400551653263,143.433
1400551713263,143.320
1400551773263,143.181
1400551833263,143.358
1400551893263,142.955
1400551953263,143.058
1400552013263,143.248
1400552073263,143.388
1400552133263,143.595
1400552193263,143.187
1400552253263,143.529
1400552313263,143.300
1400552373263,143.338
1400552433263,143.419
1400552493263,143.208
1400552553263,143.292
1400552613263,143.277
1400552673263,143.126
1400552733263,143.368
1400552793263,143.118
1400552853263,143.451
1400552913263,143.056
1400552973263,143.552
1400553033263,143.743
1400553093263,143.408
1400553153263,143.275
1400553213263,143.984
1400553273263,144.148
1400553333263,144.133
1400553393263,144.069
1400553453263,144.188
1400553513263,144.012
1400553573263,144.659
1400553633263,144.662
1400553693263,144.138
1400553753263,144.071
1400553813263,144.436
1400553873263,144.044
1400553933263,144.099
1400553993263,143.878
1400554053263,144.018
1400554113263,143.820
1400554173263,143.755
1400554233263,144.137
1400554293263,143.556
1400554353263,143.568
1400554413263,143.741
1400554473263,143.732
1400554533263,143.447
1400554593263,143.656
1400554653263,143.649
1400554713263,143.610
1400554773263,143.694
1400554833272,143.379
1400554893272,143.144
1400554953272,143.227
1400555013272,143.294
1400555073272,143.061
1400555133272,143.547
1400555193272,143.579
1400555253272,143.424
1400555313272,143.621
1400555373272,143.343
1400555433272,143.346
1400555493272,142.141
1400556033272,143.751
1400556093272,139.417
1400556153272,143.326
1400556213272,143.326
1400556273272,143.535
1400556333272,143.145
1400556393272,143.303
1400556453272,142.976
1400556513272,143.467
1400556573272,143.594
1400556633272,143.411
1400556693272,143.520
1400556753272,143.137
1400556813272,143.198
1400556873272,143.194
1400556933272,143.435
1400556993272,143.127
1400557053272,143.332
1400557113272,143.181
1400557173272,143.284
1400557233272,143.478
1400557293272,143.644
1400557353272,143.681
1400557413272,143.625
1400557473272,143.267
1400557533272,143.418
1400557593272,143.353
1400557653272,143.637
1400557713272,143.295
1400557773272,143.485
1400557833272,143.527
1400557893272,143.510
1400557953272,143.231
1400558013272,143.703
1400558073272,143.244
1400558133272,143.632
1400558193272,143.583
1400558253272,143.208
1400558313272,143.442
1400558373272,143.478
1400558433282,143.576
1400558493282,143.499
1400558553282,143.490
1400558613282,143.633
1400558673282,143.785
1400558733282,143.442
1400558793282,143.774
1400558853282,143.679
1400558913282,143.448
1400558973282,143.527
1400559033282,143.639
1400559093282,143.753
1400559153282,143.610
1400559213282,143.604
1400559273282,143.680
1400559333282,143.484
1400559393282,143.490
1400559453282,143.716
1400559513282,143.467
1400559573282,143.645
1400559633282,143.725
1400559693282,143.805
1400559753282,143.769
1400559813282,143.488
1400559873282,143.513
1400559933282,143.706
1400559993282,143.684
1400560053282,143.683
1400560113282,144.211
1400560173282,143.820
1400560233282,143.954
1400560293282,143.941
1400560353282,144.011
1400560413282,143.812
1400560473282,143.608
1400560533282,144.326
1400560593282,143.730
1400560653282,143.852
1400560713282,144.216
1400560773282,143.864
1400560833282,144.078
1400560893282,143.937
1400560953282,144.255
1400561013282,143.909
1400561073282,143.843
1400561133282,144.105
1400561193282,144.147
1400561253282,144.169
1400561313282,144.103
1400561373282,144.419
1400561433282,143.888
1400561493282,144.096
1400561553282,144.445
1400561613282,144.379
1400561673282,144.212
1400561733282,144.691
1400561793282,144.217
1400561853282,144.480
1400561913282,144.701
1400561973282,144.555
1400562033291,144.605
1400562093291,144.734
1400562153291,144.214
1400562213291,144.795
1400562273291,144.488
1400562333291,144.423
1400562393291,144.771
1400562453291,144.416
1400562513291,144.781
1400562573291,144.883
1400562633291,144.459
1400562693291,145.050
1400562753291,144.699
1400562813291,144.632
1400562873291,144.811
1400562933291,144.843
1400562993291,144.986
1400563053291,144.733
1400563113291,144.965
1400563173291,145.273
1400563233291,145.173
1400563293291,144.731
1400563353291,144.906
1400563413291,144.741
1400563473291,145.284
1400563533291,145.335
1400563593291,144.830
1400563653291,144.767
1400563713291,144.835
1400563773291,144.916
1400563833291,144.942
1400563893291,144.842
1400563953291,144.929
1400564013291,145.267
1400564073291,144.973
1400564133291,144.987
1400564193291,144.872
1400564253291,145.056
1400564313291,144.901
1400564373291,145.198
1400564433291,144.816
1400564493291,145.057
1400564553291,145.044
1400564613291,144.798
1400564673291,144.645
1400564733291,145.132
1400564793291,144.918
1400564853291,144.861
1400564913291,144.679
1400564973291,144.656
1400565033291,144.562
1400565093291,144.956
1400565153291,144.782
1400565213291,144.833
1400565273291,144.682
1400565333291,144.530
1400565393291,144.688
1400565453291,144.651
1400565513291,144.334
1400565573291,144.718
1400565633299,144.840
1400565693299,144.467
1400565753299,144.760
1400565813299,144.789
1400565873299,144.592
1400565933299,144.508
1400565993299,144.821
1400566053299,144.564
1400566113299,144.412
1400566173299,144.734
1400566233299,144.631
1400566293299,144.547
1400566353299,144.331
1400566413299,144.417
1400566473299,144.518
1400566533299,144.466
1400566593299,144.482
1400566653299,144.238
1400566713299,144.372
1400566773299,144.349
1400566833299,144.761
1400566893299,144.116
1400566953299,144.208
1400567013299,144.206
1400567073299,144.577
1400567133299,144.441
1400567193299,144.063
1400567253299,144.196
1400567313299,144.208
1400567373299,144.212
1400567433299,144.268
1400567493299,144.273
1400567553299,144.006
1400567613299,144.214
1400567673299,144.366
1400567733299,144.269
1400567793299,144.258
1400567853299,144.111
1400567913299,144.304
1400567973299,144.259
1400568033299,144.360
1400568093299,144.134
1400568153299,144.046
1400568213299,144.133
1400568273299,143.902
1400568333299,143.997
1400568393299,144.245
1400568453299,144.028
1400568513299,143.706
1400568573299,143.866
1400568633299,143.603
1400568693299,143.891
1400568753299,144.007
1400568813299,144.151
1400568873299,144.190
1400568933299,144.032
1400568993299,143.855
1400569053299,143.934
1400569113299,143.804
1400569173299,143.923
1400569233308,144.118
1400569293308,143.888
1400569353308,143.736
1400569413308,144.059
1400569473308,144.073
1400569533308,144.113
1400569593308,143.716
1400569653308,143.633
1400569713308,143.818
1400569773308,143.910
1400569833308,143.710
1400569893308,143.502
1400569953308,143.433
1400570013308,143.564
1400570073308,143.327
1400570133308,143.719
1400570193308,143.599
1400570253308,143.482
1400570313308,143.527
1400570373308,143.598
1400570433308,143.613
1400570493308,143.824
1400570553308,143.410
1400570613308,143.485
1400570673308,143.472
1400570733308,143.423
1400570793308,143.775
1400570853308,143.352
1400570913308,143.268
1400570973308,143.356
1400571033308,143.596
1400571093308,143.426
1400571153308,143.291
1400571213308,143.753
1400571273308,143.245
1400571333308,143.464
1400571393308,143.319
1400571453308,143.418
1400571513308,143.268
1400571573308,143.317
1400571633308,143.466
1400571693308,143.450
1400571753308,143.321
1400571813308,143.290
1400571873308,143.557
1400571933308,143.386
1400571993308,143.306
1400572053308,143.586
1400572113308,143.308
1400572173308,143.238
1400572233308,143.247
1400572293308,143.295
1400572353308,143.355
1400572413308,143.473
1400572473308,143.172
1400572533308,143.096
1400572593308,143.420
1400572653308,142.917
1400572713308,143.466
1400572773308,143.295
1400572833317,143.439
1400572893317,142.853
1400572953317,143.197
1400573013317,143.007
1400573073317,143.046
1400573133317,143.287
1400573193317,143.462
1400573253317,143.207
1400573313317,143.251
1400573373317,143.309
1400573433317,143.230
1400573493317,143.036
1400573553317,143.166
1400573613317,143.051
1400573673317,143.340
1400573733317,143.136
1400573793317,143.144
1400573853317,142.909
1400573913317,143.240
1400573973317,143.029
1400574033317,142.737
1400574093317,143.153
1400574153317,143.205
1400574213317,143.074
1400574273317,143.212
1400574333317,142.882
1400574393317,143.132
1400574453317,143.163
1400574513317,143.080
1400574573317,142.928
1400574633317,142.984
1400574693317,142.923
1400574753317,142.629
1400574813317,142.671
1400574873317,143.029
1400574933317,143.122
1400574993317,142.863
1400575053317,143.121
1400575113317,143.092
1400575173317,143.174
1400575233317,143.018
1400575293317,142.954
1400575353317,142.845
1400575413317,143.091
1400575473317,142.803
1400575533317,142.935
1400575593317,143.324
1400575653317,143.110
1400575713317,143.193
1400575773317,143.131
1400575833317,142.874
1400575893317,142.944
1400575953317,142.956
1400576013317,143.027
1400576073317,143.065
1400576133317,142.869
1400576193317,142.962
1400576253317,143.109
1400576313317,143.241
1400576373317,143.321
1400576433326,143.086
1400576493326,143.021
1400576553326,143.120
1400576613326,142.843
1400576673326,142.939
1400576733326,143.029
1400576793326,142.874
1400576853326,142.909
1400576913326,143.411
1400576973326,143.110
1400577033326,143.215
1400577093326,143.074
1400577153326,143.007
1400577213326,142.863
1400577273326,143.084
1400577333326,143.177
1400577393326,143.216
1400577453326,143.040
1400577513326,143.092
1400577573326,142.941
1400577633326,143.122
1400577693326,143.165
1400577753326,143.252
1400577813326,143.119
1400577873326,143.170
1400577933326,143.293
1400577993326,143.073
1400578053326,142.892
1400578113326,142.651
1400578173326,142.684
1400578233326,142.923
1400578293326,142.724
1400578353326,142.430
1400578413326,143.132
1400578473326,142.739
1400578533326,143.003
1400578593326,142.837
1400578653326,143.020
1400578713326,142.992
1400578773326,142.942
1400578833326,142.909
1400578893326,142.714
1400578953326,142.711
1400579013326,142.672
1400579073326,142.820
1400579133326,142.617
1400579193326,142.737
1400579253326,142.540
1400579313326,142.777
1400579373326,142.633
1400579433326,142.671
1400579493326,142.666
1400579553326,142.513
1400579613326,142.601
1400579673326,142.823
1400579733326,142.718
1400579793326,142.723
1400579853326,142.481
1400579913326,143.011
1400579973326,142.712
1400580033334,142.324
1400580093334,142.671
1400580153334,142.669
1400580213334,142.591
1400580273334,142.518
1400580333334,142.710
1400580393334,142.490
1400580453334,142.857
1400580513334,142.537
1400580573334,142.213
1400580633334,142.781
1400580693334,142.553
1400580753334,142.771
1400580813334,142.567
1400580873334,142.698
1400580933334,142.809
1400580993334,142.324
1400581053334,142.733
1400581113334,142.480
1400581173334,142.276
1400581233334,142.781
1400581293334,142.805
1400581353334,142.800
1400581413334,142.775
1400581473334,142.761
1400581533334,142.986
1400581593334,142.614
1400581653334,142.680
1400581713334,142.894
1400581773334,142.824
1400581833334,143.080
1400581893334,143.039
1400581953334,142.730
1400582013334,142.579
1400582073334,142.698
1400582133334,142.567
1400582193334,143.072
1400582253334,142.604
1400582313334,142.688
1400582373334,142.928
1400582433334,142.701
1400582493334,142.669
1400582553334,142.515
1400582613334,142.665
1400582673334,142.533
1400582733334,142.375
1400582793334,142.638
1400582853334,142.463
1400582913334,142.357
1400582973334,142.686
1400583033334,142.853
1400583093334,142.376
1400583153334,142.957
1400583213334,142.654
1400583273334,142.442
1400583333334,142.686
1400583393334,142.742
1400583453334,142.692
1400583513334,142.734
1400583573334,142.789
1400583633343,142.747
1400583693343,142.714
1400583753343,142.725
1400583813343,142.625
1400583873343,142.401
1400583933343,142.673
1400583993343,142.360
1400584053343,142.415
1400584113343,142.594
1400584173343,142.766
1400584233343,142.904
1400584293343,142.705
1400584353343,142.611
1400584413343,142.615
1400584473343,142.830
1400584533343,142.245
1400584593343,142.532
1400584653343,142.576
1400584713343,142.549
1400584773343,142.346
1400584833343,142.532
1400584893343,142.554
1400584953343,142.663
1400585013343,142.106
1400585073343,142.365
1400585133343,142.423
1400585193343,142.518
1400585253343,142.518
1400585313343,142.390
1400585373343,142.171
1400585433343,142.397
1400585493343,142.334
1400585553343,142.242
1400585613343,142.136
1400585673343,142.324
1400585733343,142.328
1400585793343,142.193
1400585853343,142.419
1400585913343,142.225
1400585973343,142.114
1400586033343,142.158
1400586093343,142.082
1400586153343,142.113
1400586213343,142.445
1400586273343,142.207
1400586333343,142.104
1400586393343,142.390
1400586453343,142.243
1400586513343,142.362
1400586573343,142.291
1400586633343,142.193
1400586693343,142.240
1400586753343,142.527
1400586813343,142.374
1400586873343,142.269
1400586933343,142.275
1400586993343,142.199
1400587053343,142.221
1400587113343,141.913
1400587173343,142.245
1400587233352,141.791
1400587293352,141.921
1400587353352,141.833
1400587413352,141.914
1400587473352,142.043
1400587533352,142.174
1400587593352,142.293
1400587653352,141.943
1400587713352,141.953
1400587773352,141.941
1400587833352,141.406
1400587893352,142.190
1400587953352,142.451
1400588013352,141.554
1400588073352,141.362
1400588133352,141.927
1400588193352,141.706
1400588253352,141.555
1400588313352,142.044
1400588373352,141.585
1400588433352,141.746
1400588493352,141.625
1400588553352,141.945
1400588613352,141.744
1400588673352,141.607
1400588733352,141.723
1400588793352,141.862
1400588853352,141.654
1400588913352,141.924
1400588973352,141.493
1400589033352,141.613
1400589093352,141.303
1400589153352,141.469
1400589213352,141.303
1400589273352,141.852
1400589333352,141.663
1400589393352,141.690
1400589453352,141.514
1400589513352,141.485
1400589573352,141.524
1400589633352,140.951
1400589693352,141.430
1400589753352,140.970
1400589813352,141.100
1400589873352,141.458
1400589933352,141.071
1400589993352,141.222
1400590053352,141.477
1400590113352,141.092
1400590173352,140.984
1400590233352,141.242
1400590293352,141.208
1400590353352,141.261
1400590413352,141.107
1400590473352,141.221
1400590533352,141.039
1400590593352,141.242
1400590653352,141.010
1400590713352,141.312
1400590773352,141.063
1400590833373,141.383
1400590893373,141.166
1400590953373,141.239
1400591013373,141.069
1400591073373,141.363
1400591133373,141.288
1400591193373,141.083
1400591253373,140.858
1400591313373,141.133
1400591373373,141.044
1400591433373,140.958
1400591493373,140.911
1400591553373,141.458
1400591613373,141.192
1400591673373,141.030
1400591733373,140.774
1400591793373,140.947
1400591853373,141.058
1400591913373,140.844
1400591973373,140.772
1400592033373,141.258
1400592093373,141.092
1400592153373,141.189
1400592213373,140.789
1400592273373,140.903
1400592333373,140.865
1400592393373,141.145
1400592453373,141.060
1400592513373,140.921
1400592573373,140.756
1400592633373,140.695
1400592693373,140.950
1400592753373,140.964
1400592813373,141.119
1400592873373,141.253
1400592933373,140.958
1400592993373,141.065
1400593053373,141.342
1400593113373,141.001
1400593173373,141.172
1400593233373,140.871
1400593293373,140.904
1400593353373,140.951
1400593413373,140.746
1400593473373,140.963
1400593533373,140.801
1400593593373,140.962
1400593653373,140.710
1400593713373,140.794
1400593773373,140.773
1400593833373,140.851
1400593893373,140.653
1400593953373,140.714
1400594013373,140.889
1400594073373,140.563
1400594133373,140.904
1400594193373,140.902
1400594253373,140.691
1400594313373,140.749
1400594373373,140.667
1400594433382,140.406
1400594493382,140.665
1400594553382,140.549
1400594613382,140.641
1400594673382,140.707
1400594733382,140.691
1400594793382,140.300
1400594853382,140.675
1400594913382,140.409
1400594973382,140.563
1400595033382,140.521
1400595093382,140.186
1400595153382,140.117
1400595213382,140.348
1400595273382,140.269
1400595333382,140.114
1400595393382,140.501
1400595453382,140.488
1400595513382,140.045
1400595573382,140.599
1400595633382,140.424
1400595693382,140.372
1400595753382,140.645
1400595813382,140.325
1400595873382,140.380
1400595933382,140.587
1400595993382,140.458
1400596053382,140.568
1400596113382,140.431
1400596173382,140.362
1400596233382,140.345
1400596293382,140.446
1400596353382,140.886
1400596413382,140.667
1400596473382,140.714
1400596533382,140.689
1400596593382,140.825
1400596653382,140.623
1400596713382,140.552
1400596773382,140.706
1400596833382,141.136
1400596893382,140.779
1400596953382,140.793
1400597013382,140.765
1400597073382,140.871
1400597133382,140.966
1400597193382,140.999
1400597253382,140.899
1400597313382,141.131
1400597373382,141.073
1400597433382,140.984
1400597493382,140.825
1400597553382,140.816
1400597613382,141.125
1400597673382,141.218
1400597733382,141.079
1400597793382,141.230
1400597853382,141.274
1400597913382,141.388
1400597973382,141.392
1400598033391,141.066
1400598093391,141.077
1400598153391,141.360
1400598213391,141.485
1400598273391,141.476
1400598333391,141.847
1400598393391,141.676
1400598453391,141.540
1400598513391,141.360
1400598573391,141.257
1400598633391,141.375
1400598693391,141.330
1400598753391,141.224
1400598813391,141.640
1400598873391,141.964
1400598933391,141.448
1400598993391,141.659
1400599053391,141.537
1400599113391,141.512
1400599173391,141.425
1400599233391,141.487
1400599293391,141.840
1400599353391,141.479
1400599413391,141.814
1400599473391,141.699
1400599533391,141.882
1400599593391,142.105
1400599653391,141.855
1400599713391,142.116
1400599773391,141.862
1400599833391,142.049
1400599893391,141.990
1400599953391,141.788
1400600013391,141.807
1400600073391,142.057
1400600133391,142.192
1400600193391,142.091
1400600253391,142.112
1400600313391,142.125
1400600373391,142.372
1400600433391,142.121
1400600493391,142.162
1400600553391,142.192
1400600613391,142.258
1400600673391,142.295
1400600733391,142.115
1400600793391,142.397
1400600853391,142.082
1400600913391,142.185
1400600973391,142.468
1400601033391,142.360
1400601093391,142.763
1400601153391,142.299
1400601213391,142.642
1400601273391,142.626
1400601333391,142.459
1400601393391,142.486
1400601453391,142.579
1400601513391,142.426
1400601573391,142.736
1400601633400,142.721
1400601693400,142.833
1400601753400,142.609
1400601813400,142.488
1400601873400,142.842
1400601933400,142.612
1400601993400,142.399
1400602053400,142.343
1400602113400,142.336
1400602173400,142.590
1400602233400,142.560
1400602293400,142.364
1400602353400,142.561
1400602413400,142.180
1400602473400,142.173
1400602533400,142.637
1400602593400,142.429
1400602653400,142.362
1400602713400,142.230
1400602773400,142.122
1400602833400,141.917
1400602893400,142.160
1400602953400,142.086
1400603013400,142.299
1400603073400,141.997
1400603133400,142.170
1400603193400,141.868
1400603253400,142.091
1400603313400,142.159
1400603373400,141.976
1400603433400,141.780
1400603493400,142.078
1400603553400,142.169
1400603613400,142.347
1400603673400,142.190
1400603733400,142.247
1400603793400,142.204
1400603853400,142.069
1400603913400,142.171
1400603973400,141.866
1400604033400,141.983
1400604093400,141.681
1400604153400,142.020
1400604213400,141.884
1400604273400,142.143
1400604333400,142.063
1400604393400,141.778
1400604453400,142.036
1400604513400,141.707
1400604573400,141.734
1400604633400,142.069
1400604693400,141.733
1400604753400,142.058
1400604813400,141.783
1400604873400,141.613
1400604933400,141.908
1400604993400,141.707
1400605053400,141.561
1400605113400,141.679
1400605173400,141.819
1400605233409,141.916
1400605293409,141.794
1400605353409,141.772
1400605413409,141.458
1400605473409,141.716
1400605533409,141.411
1400605593409,141.557
1400605653409,141.311
1400605713409,141.819
1400605773409,141.400
1400605833409,141.971
1400605893409,141.528
1400605953409,141.611
1400606013409,141.528
1400606073409,141.634
1400606133409,141.429
1400606193409,141.256
1400606253409,141.817
1400606313409,141.700
1400606373409,141.440
1400606433409,141.776
1400606493409,141.359
1400606553409,141.381
1400606613409,141.528
1400606673409,141.444
1400606733409,141.458
1400606793409,141.249
1400606853409,141.483
1400606913409,140.967
1400606973409,141.196
1400607033409,141.255
1400607093409,141.209
1400607153409,140.944
1400607213409,141.580
1400607273409,140.929
1400607333409,141.083
1400607393409,141.114
1400607453409,141.566
1400607513409,141.094
1400607573409,141.080
1400607633409,141.037
1400607693409,141.026
1400607753409,141.154
1400607813409,141.502
1400607873409,140.954
1400607933409,141.316
1400607993409,141.259
1400608053409,141.408
1400608113409,141.136
1400608173409,141.180
1400608233409,141.463
1400608293409,141.168
1400608353409,141.508
1400608413409,141.026
1400608473409,141.139
1400608533409,141.124
1400608593409,141.706
1400608653409,141.084
1400608713409,141.316
1400608773409,140.875
1400608833419,141.103
1400608893419,141.071
1400608953419,141.406
1400609013419,141.433
1400609073419,141.204
1400609133419,141.369
1400609193419,141.082
1400609253419,141.057
1400609313419,141.127
1400609373419,141.222
1400609433419,141.078
1400609493419,141.210
1400609553419,141.110
1400609613419,141.304
1400609673419,141.165
1400609733419,141.094
1400609793419,141.034
1400609853419,141.519